| time (UTC) | temp C | wind direction | speed KPH | gust KPH | rain 1hr cm | rain 24hr cm | rain mn cm | humidity % | barometer mb |
| 20260504043052 | 9 | 258 | 4.8 | 11.3 | 0.00 | 0.00 | 0.00 | 52 | 1014.2 |
| 20260504041544 | 9 | 269 | 3.2 | 12.9 | 0.00 | 0.00 | 0.00 | 51 | 1014.0 |
| 20260504040059 | 10 | 245 | 4.8 | 11.3 | 0.00 | 0.00 | 0.00 | 51 | 1013.9 |
| 20260504034558 | 10 | 261 | 3.2 | 11.3 | 0.00 | 0.00 | 0.00 | 50 | 1013.9 |
| 20260504033138 | 10 | 290 | 3.2 | 9.7 | 0.00 | 0.00 | 0.00 | 50 | 1013.9 |
| 20260504031538 | 9 | 269 | 6.4 | 12.9 | 0.00 | 0.00 | 0.00 | 50 | 1014.0 |
| 20260504030044 | 9 | 289 | 1.6 | 9.7 | 0.00 | 0.00 | 0.00 | 50 | 1013.8 |
| 20260504024536 | 9 | 269 | 3.2 | 8.0 | 0.00 | 0.00 | 0.00 | 50 | 1014.0 |
| 20260504023036 | 10 | 257 | 3.2 | 6.4 | 0.00 | 0.00 | 0.00 | 49 | 1014.0 |
| 20260504021534 | 9 | 286 | 1.6 | 3.2 | 0.00 | 0.00 | 0.00 | 49 | 1013.9 |
| 20260504020035 | 9 | 277 | 1.6 | 4.8 | 0.00 | 0.00 | 0.00 | 49 | 1014.1 |
| 20260504014534 | 9 | 281 | 0.0 | 3.2 | 0.00 | 0.00 | 0.00 | 48 | 1014.0 |
| 20260504013045 | 9 | 279 | 0.0 | 3.2 | 0.00 | 0.00 | 0.00 | 48 | 1013.9 |
| 20260504011533 | 9 | 292 | 0.0 | 1.6 | 0.00 | 0.00 | 0.00 | 49 | 1013.8 |
| 20260504010032 | 9 | 323 | 0.0 | 0.0 | 0.00 | 0.00 | 0.00 | 49 | 1013.5 |
| 20260504004532 | 10 | 323 | 0.0 | 0.0 | 0.00 | 0.00 | 0.00 | 48 | 1013.4 |
| 20260504003033 | 10 | 323 | 0.0 | 0.0 | 0.00 | 0.00 | 0.00 | 47 | 1013.2 |
| 20260504001530 | 10 | 332 | 1.6 | 6.4 | 0.00 | 0.00 | 0.00 | 46 | 1013.0 |
| 20260504000030 | 11 | 332 | 1.6 | 6.4 | 0.00 | 0.00 | 0.00 | 45 | 1012.8 |
| 20260503234531 | 11 | 324 | 3.2 | 14.5 | 0.00 | 0.00 | 0.00 | 43 | 1012.6 |
| 20260503233035 | 11 | 322 | 8.0 | 20.9 | 0.00 | 0.00 | 0.00 | 42 | 1012.5 |
| 20260503231527 | 12 | 39 | 8.0 | 22.5 | 0.00 | 0.00 | 0.00 | 41 | 1012.4 |
| 20260503230032 | 12 | 58 | 9.7 | 24.1 | 0.00 | 0.00 | 0.00 | 40 | 1012.1 |
| 20260503224527 | 12 | 39 | 6.4 | 24.1 | 0.00 | 0.00 | 0.00 | 39 | 1012.2 |
| 20260503223026 | 12 | 274 | 4.8 | 25.7 | 0.00 | 0.00 | 0.00 | 39 | 1012.1 |
| 20260503221526 | 12 | 332 | 6.4 | 12.9 | 0.00 | 0.00 | 0.00 | 38 | 1011.9 |
| 20260503220023 | 12 | 302 | 8.0 | 20.9 | 0.00 | 0.00 | 0.00 | 37 | 1012.0 |
| 20260503214522 | 12 | 318 | 9.7 | 24.1 | 0.00 | 0.00 | 0.00 | 36 | 1012.1 |
| 20260503213021 | 12 | 63 | 11.3 | 24.1 | 0.00 | 0.00 | 0.00 | 36 | 1012.0 |
| 20260503211532 | 12 | 334 | 11.3 | 19.3 | 0.00 | 0.00 | 0.00 | 36 | 1011.9 |
| 20260503210019 | 12 | 331 | 6.4 | 24.1 | 0.00 | 0.00 | 0.00 | 36 | 1011.9 |
| 20260503204516 | 11 | 287 | 6.4 | 29.0 | 0.00 | 0.00 | 0.00 | 38 | 1012.0 |
| 20260503203016 | 11 | 307 | 16.1 | 37.0 | 0.00 | 0.00 | 0.00 | 36 | 1012.1 |
| 20260503201515 | 11 | 274 | 9.7 | 33.8 | 0.00 | 0.00 | 0.00 | 37 | 1012.1 |
| 20260503200014 | 11 | 347 | 14.5 | 30.6 | 0.00 | 0.00 | 0.00 | 37 | 1012.4 |
| 20260503194511 | 11 | 330 | 9.7 | 29.0 | 0.00 | 0.00 | 0.00 | 39 | 1012.3 |
| 20260503193010 | 10 | 304 | 8.0 | 29.0 | 0.00 | 0.00 | 0.00 | 39 | 1012.5 |
| 20260503191509 | 10 | 322 | 14.5 | 29.0 | 0.00 | 0.00 | 0.00 | 38 | 1012.5 |
| 20260503190015 | 10 | 313 | 8.0 | 17.7 | 0.00 | 0.00 | 0.00 | 41 | 1012.6 |
| 20260503184508 | 10 | 352 | 9.7 | 24.1 | 0.00 | 0.00 | 0.00 | 42 | 1012.6 |
| 20260503183008 | 10 | 342 | 8.0 | 30.6 | 0.00 | 0.00 | 0.00 | 41 | 1012.8 |
| 20260503181504 | 10 | 331 | 12.9 | 30.6 | 0.00 | 0.00 | 0.00 | 42 | 1012.9 |
| 20260503180002 | 10 | 311 | 8.0 | 19.3 | 0.00 | 0.00 | 0.00 | 44 | 1013.0 |
| 20260503174559 | 9 | 1 | 9.7 | 25.7 | 0.00 | 0.00 | 0.00 | 43 | 1012.9 |
| 20260503173114 | 9 | 333 | 8.0 | 22.5 | 0.00 | 0.00 | 0.00 | 47 | 1013.2 |
| 20260503171555 | 8 | 27 | 9.7 | 32.2 | 0.00 | 0.00 | 0.00 | 48 | 1013.1 |
| 20260503081517 | 3 | 315 | 9.7 | 19.3 | 0.00 | 0.18 | 0.00 | 69 | 1011.8 |
| 20260503071610 | 4 | 30 | 8.0 | 19.3 | 0.00 | 0.28 | 0.00 | 67 | 1011.7 |
| 20260503070103 | 4 | 47 | 8.0 | 20.9 | 0.00 | 0.28 | 0.00 | 66 | 1011.6 |
| 20260503054546 | 5 | 32 | 4.8 | 16.1 | 0.00 | 0.28 | 0.00 | 63 | 1012.0 |
| 20260503053046 | 5 | 37 | 3.2 | 14.5 | 0.00 | 0.28 | 0.00 | 63 | 1012.3 |
| 20260503051545 | 5 | 324 | 1.6 | 9.7 | 0.00 | 0.28 | 0.00 | 63 | 1012.5 |
| 20260503050040 | 5 | 17 | 8.0 | 17.7 | 0.00 | 0.28 | 0.00 | 61 | 1012.5 |
| 20260503044537 | 6 | 310 | 6.4 | 16.1 | 0.00 | 0.28 | 0.00 | 60 | 1012.7 |